Regional Weather Roundup
Issued by NWS

Home | Current Version | Previous Version | Graphics & Text | Print | Product List | Glossary On
Versions: 1 2 3 4 5 6 7 8 9 10 11 12 13 14 15 16 17 18 19 20 21 22 23 24 25 26 27 28 29 30 31 32 33 34 35 36 37 38 39 40 41 42 43 44 45 46 47 48 49 50
000
ASUS43 KBIS 301902
RWRND

NORTH DAKOTA REGIONAL WEATHER ROUNDUP
NATIONAL WEATHER SERVICE BISMARCK ND
200 PM CDT SAT JUL 30 2016

NOTE: "FAIR" INDICATES FEW OR NO CLOUDS BELOW 12,000 FEET WITH NO
SIGNIFICANT WEATHER AND/OR OBSTRUCTIONS TO VISIBILITY.


NDZ001>003-009>011-017-302000-
NORTHWEST NORTH DAKOTA

CITY           SKY/WX    TMP DP  RH WIND       PRES   REMARKS
WILLISTON      SUNNY     86  51  29 S8        29.84F
MINOT          MOSUNNY   85  60  42 E9        29.85F
MINOT AFB      SUNNY     82  60  47 VRB7      29.84F
$$

NDZ018>021-031>035-040>046-302000-
SOUTHWEST NORTH DAKOTA

CITY           SKY/WX    TMP DP  RH WIND       PRES   REMARKS
BISMARCK       SUNNY     81  67  62 S13       29.87F
DICKINSON      SUNNY     82  53  36 W5        29.86F
GARRISON         N/A     79  66  64 SW5       29.86F
HETTINGER ARPT PTSUNNY   91  53  27 SW7       29.88F
$$

NDZ004>008-012>016-024-026-027-054-302000-
NORTHEAST NORTH DAKOTA

CITY           SKY/WX    TMP DP  RH WIND       PRES   REMARKS
GRAND FORKS    PTSUNNY   81  62  52 S16       29.92F
GRND FRKS AFB  PTSUNNY   79  63  56 S18       29.93S
DEVILS LAKE    CLOUDY    74  63  68 S14       29.91F
$$

NDZ022-023-025-028>030-036>039-047>053-302000-
SOUTHEAST NORTH DAKOTA

CITY           SKY/WX    TMP DP  RH WIND       PRES   REMARKS
FARGO          MOSUNNY   80  60  50 S13G20    29.95F
JAMESTOWN      CLOUDY    77  62  59 S14G21    29.92F
$$





USA.gov is the U.S. government's official web portal to all federal, state and local government web resources and services.